Location: Augustenthal
(51.7167°N, 10.2833°E)
Time: 01:11:48
(UTC+00:00)

Cosmos 1455 Rocket - Pass Details

Date: 03 October 2021
Orbit: 606 x 628 km, 82.5° (Epoch: 19 October)

Event Time Altitude Azimuth Distance (km) Brightness Sun altitude
Exits shadow 21:11:33 16° 332° (NNW) 1,633 5.8 -36.8°
Drops below altitude 10° 21:12:52 10° 346° (NNW) 1,994 6.3 -36.9°
Sets 21:15:33 0° 2° (N) 2,910 7.1 -37.2°
